Regional Weather Roundup
Issued by NWS Northern Indiana

Home | Current Version | Previous Version | Graphics & Text | Print | Product List | Glossary On
Versions: 1 2 3 4 5 6 7 8 9 10 11 12 13 14 15 16 17 18 19 20 21 22 23 24 25 26 27 28 29 30 31 32 33 34 35 36 37 38 39 40 41 42 43 44 45 46 47 48 49 50
293
ASUS43 KIWX 200401
RWRIWX

KIWX WEATHER ROUNDUP
NATIONAL WEATHER SERVICE NORTHERN INDIANA
1200 AM EDT SUN AUG 20 2017

NOTE: "FAIR" INDICATES FEW OR NO CLOUDS BELOW 12,000 FEET WITH NO
SIGNIFICANT WEATHER AND/OR OBSTRUCTIONS TO VISIBILITY.

* THESE STATIONS ARE NOT UNDER NWS QUALITY CONTROL. THEY ALSO MAY NOT
  REPORT WEATHER SUCH AS PRECIPITATION OR FOG.

INZ001>027-200500-
NORTHERN INDIANA

CITY           SKY/WX    TMP DP  RH WIND       PRES   REMARKS
SOUTH BEND     CLEAR     60  59  96 CALM      30.02R
GOSHEN         CLEAR     63  59  87 CALM      30.02R
MONTICELLO*    CLEAR     65  64  94 CALM      29.99S
FORT WAYNE     CLEAR     64  60  87 CALM      30.01S
PERU/GRISSOM   CLEAR     66  62  84 SE3       30.00R

$$
INZ028>050-200500-
CENTRAL INDIANA

CITY           SKY/WX    TMP DP  RH WIND       PRES   REMARKS
LAFAYETTE      CLEAR     66  64  93 CALM      29.99R
KOKOMO*        CLEAR     65  63  93 CALM      30.02R
MUNCIE*        PTCLDY    65  62  90 CALM      30.02R
INDIANAPOLIS   PTCLDY    75  63  66 E6        30.00R

$$
MIZ043>046-050>051-056>058-064>065-071>073-077>080-200500-
SOUTHWEST LOWER MICHIGAN

CITY           SKY/WX    TMP DP  RH WIND       PRES   REMARKS
BATTLE CREEK   CLEAR     63  59  87 SW3       30.02R
BENTON HARBOR  CLEAR     60  57  89 CALM      30.00R
COLDWATER*     CLEAR     61  60  97 CALM      30.02R
HILLSDALE*     MOCLDY    59  55  88 CALM      30.03R
HOLLAND        CLEAR     62  59  90 S3        30.00S FOG
GRAND RAPIDS   CLEAR     65  61  87 SW6       30.00R
KALAMAZOO      CLEAR     61  55  81 CALM      30.02S
STURGIS*       CLEAR     61  58  91 CALM      30.01R
THREE RIVERS*  FAIR      62  58  88 CALM      30.02R

$$
OHZ001>008-015>018-024>025-200500-
NORTHWEST OHIO

CITY           SKY/WX    TMP DP  RH WIND       PRES   REMARKS
DEFIANCE       CLEAR     63  60  90 CALM      30.02R
FINDLAY        CLEAR     66  60  81 S5        30.01R
TOLEDO EXPRESS CLEAR     62  62 100 S5        30.01R
TOLEDO METCALF CLEAR     67  61  81 CALM      30.02R
LIMA           CLEAR     60  60 100 CALM      30.02S

$$
AND FOR LAKE MICHIGAN COASTAL AND OPEN LAKE BUOY OBSERVATIONS

STATION/POSITION TEMP    WIND        PRES    VSBY  WAVE
                 AIR SEA DIR/SP/G                  HT/PER
                 (F)     (DEG/KT/KT) (MB)    (MI)  (FT/S)
CALUMET HARBOR    73     190/  2/  2 1014.9R
MICHIGAN CITY     68     110/  4/  4   N/A
BURNS HARBOR      73     110/  5/  6 1015.9R
SAINT JOSEPH      67     110/  1/  3 1016.6
SOUTH LAKE BUOY   72 72  190/  6/  8 1015.0          1
4 MI NW BRIDGMAN  71 78  150/  6/  8 1015.5R         1
MICHIGAN CITY     73 75  130/  6/  8   N/A           1

$$
&&




USA.gov is the U.S. government's official web portal to all federal, state and local government web resources and services.